Flag for Switzerland Weather past 2 weeks in Lugano, Switzerland

Now
66 °F

Clear.


Feels Like: 66 °F
Forecast: 60 / 85 °F
Wind: 2 mph from North

Location: Lugano Airport

Current Time: Aug 30, 2015 at 3:59:42 AM

Latest Report: Aug 30, 2015 at 3:20 AM


Visibility: 10 mi

Pressure: 30.21 "Hg

Humidity: 94%

Dew point: 64 °F

Location of LuganoLocation

Historic Weather in Lugano — Graph

°F

Lugano temperature yesterday

Maximum temperature yesterday: 88 °F (at 2:50 PM)
Minimum temperature yesterday: 64 °F (at 4:20 AM)
Average temperature yesterday: 75 °F

Past Weeks' High & Low Weather Summary

 TemperatureHumidityPressure
High88 °F (Aug 29, 2:50 PM)100% (Aug 15, 2:50 AM)30.24 "Hg (Aug 15, 2:50 AM)
Low55 °F (Aug 20, 4:50 AM)37% (Aug 20, 2:20 PM)29.77 "Hg (Aug 16, 3:50 PM)
Average69 °F78%30.00 "Hg
* Reported Aug 15 2:20 AM — Aug 30 2:20 AM, Lugano, Weather by CustomWeather, © 2015

Note: Actual official high and low records may vary slightly from our data, if they occured in-between our weather recording intervals... More about our weather records

Advertising

Lugano weather history for previous 24 hours

 ConditionsComfort  
Time TempWeatherWind HumidityBarometerVisibility
2:20 AM
Sun, Aug 30
68 °FClear.1 mph88%30.21 "Hg10 mi
1:50 AM68 °FMild.1 mph88%30.21 "HgN/A
1:20 AM68 °FPassing clouds.No wind94%30.21 "HgN/A
12:50 AM70 °FPassing clouds.No wind88%30.21 "HgN/A
12:20 AM70 °FMild.No wind88%30.24 "HgN/A
11:20 PM
Sat, Aug 29
72 °FPassing clouds.1 mph83%30.21 "HgN/A
10:50 PM72 °FPassing clouds.1 mph78%30.21 "HgN/A
10:20 PM73 °FPassing clouds.1 mph78%30.21 "HgN/A
9:50 PM73 °FClear.2 mph78%30.21 "Hg10 mi
9:20 PM73 °FClear.3 mph78%30.18 "Hg10 mi
8:50 PM75 °FSunny.3 mph78%30.18 "Hg10 mi
8:20 PM77 °FSunny.1 mph79%30.18 "Hg10 mi
7:50 PM79 °FSunny.2 mph70%30.15 "Hg10 mi
7:20 PM81 °FSunny.1 mph62%30.15 "Hg10 mi
6:50 PM86 °FPassing clouds.2 mph52%30.15 "HgN/A
6:20 PM88 °FPassing clouds.5 mph49%30.15 "HgN/A
5:50 PM88 °FPassing clouds.6 mph46%30.18 "HgN/A
5:20 PM88 °FPassing clouds.7 mph49%30.18 "HgN/A
4:50 PM88 °FPassing clouds.6 mph46%30.18 "HgN/A
4:20 PM88 °FPassing clouds.6 mph49%30.18 "HgN/A
3:50 PM88 °FPassing clouds.6 mph49%30.18 "HgN/A
3:20 PM88 °FPassing clouds.7 mph49%30.18 "HgN/A
2:50 PM88 °FPassing clouds.6 mph49%30.21 "HgN/A
2:20 PM86 °FPassing clouds.6 mph52%30.21 "HgN/A
1:50 PM86 °FPassing clouds.6 mph49%30.21 "HgN/A
1:20 PM84 °FPassing clouds.6 mph55%30.21 "HgN/A
12:50 PM84 °FPassing clouds.5 mph55%30.21 "HgN/A
11:50 AM81 °FSunny.3 mph58%30.24 "Hg10 mi
11:20 AM79 °FSunny.3 mph65%30.24 "Hg10 mi
10:50 AM81 °FSunny.1 mph62%30.24 "Hg10 mi
9:50 AM75 °FSunny.1 mph74%30.24 "Hg10 mi
9:20 AM73 °FSunny.1 mph74%30.24 "Hg10 mi
8:50 AM72 °FSunny.1 mph78%30.24 "Hg10 mi
7:50 AM64 °FSunny.3 mph100%30.24 "Hg10 mi
7:20 AM64 °FClear.1 mph94%30.21 "Hg10 mi
6:50 AM64 °FPassing clouds.3 mph100%30.21 "HgN/A
6:20 AM64 °FClear.2 mph100%30.21 "Hg10 mi
5:50 AM64 °FClear.2 mph94%30.21 "Hg10 mi
5:20 AM64 °FClear.2 mph100%30.21 "Hg10 mi
4:50 AM64 °FClear.1 mph100%30.21 "Hg10 mi
4:20 AM64 °FMild.3 mph100%30.21 "Hg6 mi
3:50 AM66 °FClear.2 mph94%30.21 "Hg10 mi
3:20 AM66 °FClear.No wind94%30.21 "Hg10 mi
Weather by CustomWeather, © 2015

See weather overviewHow to use our weather pages